User: anonymous   Login
Location: Guayaquil
(2.1667°S, 79.9000°W)
Time: 13:20:22
(UTC-05:00)
Language:

NEE 01 PEGASUS - Orbit

View from above orbital plane
View from above orbital plane
View from above satellite
View from above satellite

Ground track
Ground track

The orbit data is extracted from the following two-line orbital elements,

1 39151U 13018B   21209.99420070  .00000238  00000-0  38098-4 0  9992
2 39151  97.9819 312.2132 0016098 219.7158 140.2876 14.80376936445823
Epoch (UTC): 28 July 2021 23:51:38
Eccentricity: 0.0016098
inclination: 97.9819°
perigee height: 617 km
apogee height: 639 km
right ascension of ascending node: 312.2132°
argument of perigee: 219.7158°
revolutions per day: 14.80376936
mean anomaly at epoch: 140.2876°
orbit number at epoch: 44582

The dashed part of the orbit path shows where the satellite is in the earth's shadow,  

DLR